Volver al catálogo

QIANFAN-59

ActivoComunicacionesPO
NORAD 62789·PAYLOAD·🇨🇳 China

Lanzado Jan 23, 2025 desde Taiyuan Satellite Launch Center

Loading…

Próximos Pases (próximas 24 horas)

TLE

ActualizadoSource: Space-Track

Época: Sep 14, 2026, 22:15 UTC

1 62789U 25016E   26257.92765726  .00000042  00000-0  45805-4 0  9994
2 62789  88.9667  74.4270 0012365 269.1751  90.7984 13.51024272 84534

Sigue QIANFAN-59 en tiempo real con AllMySat

Download on the App Store